Location: Brienzwiler
(46.7508°N, 8.1014°E)
Time: 17:15:12
(UTC+00:00)

EO 1 Del DPAF - Pass Details

Date: 05 July 2020
Orbit: 512 x 518 km, 98.0° (Epoch: 11 August)

Event Time Altitude Azimuth Distance (km) Brightness Sun altitude
Rises 22:38:05 0° 10° (N) 2,645 8.0 -19.5°
Reaches altitude 10° 22:40:12 10° 7° (N) 1,752 6.9 -19.6°
Maximum altitude 22:43:56 63° 287° (WNW) 577 3.4 -19.7°
Enters shadow 22:44:55 44° 226° (SW) 722 3.6 -19.8°
